577  
ASUS44 KFWD 101815  
RWRTX  
NORTH TEXAS HOURLY WEATHER ROUNDUP  
NATIONAL WEATHER SERVICE FORT WORTH TX  
1200 PM CST FRI NOV 10 2017  
 
NOTE: "FAIR" INDICATES FEW OR NO CLOUDS BELOW 12,000 FEET WITH NO  
SIGNIFICANT WEATHER AND/OR S TO VISIBILITY
.  
 
TXZ118-119-101900-  
DALLAS/FORT WORTH METROPLEX  
 
CITY SKY/WX TMP DP RH WIND PRES REMARKS
 
DFW AIRPORT MOSUNNY 62 44 51 S12G18 30.26F  
6HR MIN TEMP: 44; 6HR MAX TEMP: 63;  
 
DALLAS LOVE PTSUNNY 61 44 53 S9 30.28F  
6HR MIN TEMP: 42; 6HR MAX TEMP: 61;  
 
FTW MEACHAM MOSUNNY 62 46 55 SE14 30.27F  
6HR MIN TEMP: 44; 6HR MAX TEMP: 62;  
 
DAL-EXECUTIVE CLOUDY 58 47 66 SE9 30.27F  
6HR MIN TEMP: 39; 6HR MAX TEMP: 58;  
 
FTW-ALLIANCE MOSUNNY 60 45 57 S13G18 30.27F  
6HR MIN TEMP: 38; 6HR MAX TEMP: 62;  
 
FTW-NAS-JRB PTSUNNY 61 44 53 SE12 30.28F  
6HR MIN TEMP: 45; 6HR MAX TEMP: 61;  
 
FTW-SPINKS MOSUNNY 59 46 63 SE6 30.29F  
ARLINGTON CLOUDY 57 46 66 E9 30.28F  
6HR MIN TEMP: 37; 6HR MAX TEMP: 57;  
 
GRAND PRAIRIE PTSUNNY 57 45 62 SE8 30.29F  
ADDISON PTSUNNY 61 43 51 SE9G16 30.29F  
MESQUITE MOSUNNY 63 43 48 SE10G16 30.29F  
LANCASTER PTSUNNY 59 45 60 SE6 30.29F  
6HR MIN TEMP: 37; 6HR MAX TEMP: 59;  
 

 
 
TXZ091>094-102>105-117-120-121-131>134-101900-  
NORTH CENTRAL TEXAS  
 
CITY SKY/WX TMP DP RH WIND PRES REMARKS
 
SHRMAN/DENISON SUNNY 61 41 49 SE12 30.29F  
6HR MIN TEMP: 35; 6HR MAX TEMP: 61;  
 
GAINESVILLE SUNNY 60 42 52 SE13G18 30.29F  
6HR MIN TEMP: 35; 6HR MAX TEMP: 60;  
 
BOWIE CLOUDY 54 46 76 SE7 30.27F  
6HR MIN TEMP: 39; 6HR MAX TEMP: 54;  
 
BRIDGEPORT CLOUDY 54 47 78 S7 30.30F  
6HR MIN TEMP: 42; 6HR MAX TEMP: 54;  
 
DECATUR PTSUNNY 55 46 71 SE9 30.26F  
DENTON PTSUNNY 60 46 59 VRB7G18 30.27F  
6HR MIN TEMP: 37; 6HR MAX TEMP: 61;  
 
MCKINNEY SUNNY 60 44 55 S13 30.29F  
6HR MIN TEMP: 36; 6HR MAX TEMP: 60;  
 
BONHAM SUNNY 61 38 43 SE9 30.30F  
6HR MIN TEMP: 34; 6HR MAX TEMP: 61;  
 
GREENVILLE SUNNY 64 37 36 S9 30.29F  
ROCKWALL SUNNY 62 42 48 SE6 30.29F  
6HR MIN TEMP: 40; 6HR MAX TEMP: 62;  
 
TERRELL SUNNY 62 40 44 E9 30.29F  
6HR MIN TEMP: 37; 6HR MAX TEMP: 63;  
 
WAXAHACHIE CLOUDY 58 47 67 SE5 30.29F  
6HR MIN TEMP: 38; 6HR MAX TEMP: 59;  
 
CLEBURNE PTSUNNY 57 48 72 S8G14 30.29F  
GRANBURY CLOUDY 57 48 72 S8 30.29F  
6HR MIN TEMP: 48; 6HR MAX TEMP: 58;  
 

 
 
TXZ083>090-098>101-113>116-127>130-139>142-154-155-101900-  
WESTERN NORTH TEXAS  
 
CITY SKY/WX TMP DP RH WIND PRES REMARKS
 
WICHITA FALLS CLOUDY 50 45 83 S10 30.27F  
6HR MIN TEMP: 37; 6HR MAX TEMP: 50;  
 
WF-KICKAPOO CLOUDY 50 46 86 S9 30.30F  
6HR MIN TEMP: 38; 6HR MAX TEMP: 50;  
 
VERNON CLOUDY 49 42 76 S7 30.26F  
6HR MIN TEMP: 32; 6HR MAX TEMP: 67;  
 
ABILENE CLOUDY 51 49 92 SE12 30.24F  
6HR MIN TEMP: 41; 6HR MAX TEMP: 52;  
 
ABILENE-DYESS CLOUDY 54 50 86 S9 30.23F  
6HR MIN TEMP: 43; 6HR MAX TEMP: 55;  
 
GRAHAM N/A 52 47 82 CALM 30.25F  
6HR MIN TEMP: 45; 6HR MAX TEMP: 52;  
 
BRECKENRIDGE CLOUDY 57 46 67 CALM 30.25F  
6HR MIN TEMP: 47; 6HR MAX TEMP: 57;  
 
CISCO CLOUDY 54 48 82 SE8 30.26F  
EASTLAND CLOUDY 55 47 74 S6 30.25F  
6HR MIN TEMP: 45; 6HR MAX TEMP: 55;  
 
RANGER CLOUDY 54 47 77 S5 30.26F  
6HR MIN TEMP: 38; 6HR MAX TEMP: 58;  
 
MINERAL WELLS CLOUDY 53 47 79 SE7 30.26F  
6HR MIN TEMP: 43; 6HR MAX TEMP: 53;  
 
STEPHENVILLE CLOUDY 53 46 75 SE7 30.29F  
6HR MIN TEMP: 47; 6HR MAX TEMP: 53;  
 
COMANCHE CLOUDY 52 52 100 SE7 30.27F FOG  
BROWNWOOD CLOUDY 54 48 82 SE6 30.26F  
COLEMAN CLOUDY 52 49 88 SE8 30.25F  
6HR MIN TEMP: 45; 6HR MAX TEMP: 52;  
 

 
 
TXZ143>147-156>162-174-175-101900-  
CENTRAL TEXAS  
 
CITY SKY/WX TMP DP RH WIND PRES REMARKS
 
WACO CLOUDY 56 47 71 CALM 30.28F  
6HR MIN TEMP: 45; 6HR MAX TEMP: 57;  
 
WACO-TSTC PTSUNNY 59 48 67 SE5 30.29F  
WACO-MCGREGOR CLOUDY 58 48 69 E3 30.28F  
6HR MIN TEMP: 48; 6HR MAX TEMP: 58;  
 
HILLSBORO CLOUDY 58 48 70 SE7 30.28F  
6HR MIN TEMP: 41; 6HR MAX TEMP: 58;  
 
CORSICANA PTSUNNY 60 43 53 SE9 30.30F  
6HR MIN TEMP: 40; 6HR MAX TEMP: 61;  
 
MEXIA CLOUDY 59 44 57 E6 30.26F  
6HR MIN TEMP: 43; 6HR MAX TEMP: 59;  
 
HEARNE CLOUDY 60 46 59 SE5 30.28F  
6HR MIN TEMP: 40; 6HR MAX TEMP: 60;  
 
CAMERON CLOUDY 60 47 62 CALM 30.27F  
6HR MIN TEMP: 46; 6HR MAX TEMP: 61;  
 
TEMPLE CLOUDY 58 47 66 SE6 30.28F  
6HR MIN TEMP: 50; 6HR MAX TEMP: 58;  
 
KILLEEN CLOUDY 55 48 77 E6 30.25F  
6HR MIN TEMP: 49; 6HR MAX TEMP: 55;  
 
KILLEEN-SKYLRK CLOUDY 57 48 72 E5 30.27F  
6HR MIN TEMP: 51; 6HR MAX TEMP: 57;  
 
FORT HOOD CLOUDY 55 47 77 SE12 30.23F  
6HR MIN TEMP: 49; 6HR MAX TEMP: 55;  
 
GATESVILLE CLOUDY 55 48 76 CALM 30.29F  
HAMILTON CLOUDY 52 52 100 SE7 30.28F  
6HR MIN TEMP: 48; 6HR MAX TEMP: 52;  
 
LAMPASAS CLOUDY 55 51 85 E8 30.25F  
6HR MIN TEMP: 50; 6HR MAX TEMP: 55;  
 

 
 
TXZ095>097-106>112-122>126-135>138-148>153-164>167-101900-  
EAST TEXAS  
 
CITY SKY/WX TMP DP RH WIND PRES REMARKS
 
PARIS SUNNY 61 39 44 SE13G18 30.31F  
6HR MIN TEMP: 39; 6HR MAX TEMP: 62;  
 
SULPHUR SPRNGS SUNNY 63 36 35 E8 30.32F  
6HR MIN TEMP: 40; 6HR MAX TEMP: 63;  
 
MOUNT PLEASANT SUNNY 62 38 40 SE3 30.32F  
6HR MIN TEMP: 34; 6HR MAX TEMP: 63;  
 
GILMER SUNNY 60 38 43 SE7 30.31F  
6HR MIN TEMP: 36; 6HR MAX TEMP: 60;  
 
MINEOLA SUNNY 63 37 39 S7 30.29F  
TYLER SUNNY 62 36 37 SE7 30.29F  
6HR MIN TEMP: 40; 6HR MAX TEMP: 62;  
 
LONGVIEW NOT AVBL  
MARSHALL SUNNY 63 36 37 E6 30.32F  
6HR MIN TEMP: 35; 6HR MAX TEMP: 63;  
 
ATHENS SUNNY 59 36 41 E8 30.28F  
PALESTINE SUNNY 63 39 41 NE7 30.30F  
JACKSONVILLE SUNNY 62 44 51 SE6 30.29F  
HENDERSON SUNNY 62 39 42 E9 30.30F  
6HR MIN TEMP: 38; 6HR MAX TEMP: 62;  
 
CENTER CLEAR 62 38 41 E6G17 30.29F  
6HR MIN TEMP: 38; 6HR MAX TEMP: 62;  
 
NACOGDOCHES SUNNY 64 42 44 VRB7 30.28F  
6HR MIN TEMP: 38; 6HR MAX TEMP: 65;  
 
LUFKIN SUNNY 64 44 48 E9 30.27F  
6HR MIN TEMP: 42; 6HR MAX TEMP: 65;  
 

 
 
SUPPLEMENTAL OBSERVATIONS (NWS FORT WORTH AREA)  
 
CITY SKY/WX TMP DP RH WIND PRES REMARKS
 
CADDO GRASSLND N/A 63 39 42 SE7 N/A  
PAT MAYSE LAKE N/A 59 34 38 SE8 N/A  
 
CLICK HERE TO GO TO PREVIOUS BULLETINS.

The Nexlab TX Page Main Text Page